• In Lithuania
  • List of Countries
  • For 7 days
  • Water Temperature
  • Satellite Maps
  • Weather Map
  • Weather Widgets
  • user-avatar
    Login

    Hourly Weather Honolulu

    Today, 19 June, Tuesday

    Time Temperature Precipitation Wind Pressure Humidity
    00:00 +26°C° 0 mm 3 mps 761 mmHg 72%
    01:00 +26°C° 0 mm 3 mps 760 mmHg 74%
    02:00 +26°C° 0 mm 3 mps 760 mmHg 76%
    03:00 +26°C° 0 mm 3 mps 760 mmHg 78%
    04:00 +26°C° 0 mm 3 mps 760 mmHg 80%
    05:00 +26°C° 0 mm 3 mps 760 mmHg 77%
    06:00 +27°C° 0 mm 3 mps 761 mmHg 74%
    07:00 +28°C° 0 mm 3 mps 761 mmHg 70%
    08:00 +29°C° 0 mm 3 mps 761 mmHg 65%
    09:00 +30°C° 0 mm 3 mps 761 mmHg 59%
    10:00 +33°C° 0 mm 3 mps 761 mmHg 53%
    11:00 +33°C° 0 mm 3 mps 761 mmHg 52%
    12:00 +34°C° 0 mm 3 mps 761 mmHg 50%
    13:00 +34°C° 0 mm 3 mps 761 mmHg 48%
    14:00 +34°C° 0 mm 3 mps 760 mmHg 51%
    15:00 +33°C° 0 mm 3 mps 760 mmHg 53%
    16:00 +33°C° 0 mm 3 mps 760 mmHg 55%
    17:00 +31°C° 0 mm 3 mps 760 mmHg 59%
    18:00 +29°C° 0 mm 3 mps 760 mmHg 64%
    19:00 +28°C° 0 mm 3 mps 761 mmHg 68%
    20:00 +28°C° 0 mm 4 mps 761 mmHg 69%
    21:00 +28°C° 0 mm 4 mps 761 mmHg 71%
    22:00 +27°C° 0 mm 4 mps 761 mmHg 72%
    23:00 +27°C° 0 mm 4 mps 761 mmHg 74%

    Tomorrow, 20 June, Wednesday

    Time Temperature Precipitation Wind Pressure Humidity
    00:00 +27°C° 0 mm 3 mps 761 mmHg 75%
    01:00 +26°C° 0 mm 3 mps 760 mmHg 76%
    02:00 +26°C° 0 mm 3 mps 760 mmHg 78%
    03:00 +26°C° 0 mm 3 mps 760 mmHg 80%
    04:00 +26°C° 0 mm 3 mps 760 mmHg 81%
    05:00 +27°C° 0 mm 3 mps 760 mmHg 78%
    06:00 +27°C° 0 mm 3 mps 760 mmHg 75%
    07:00 +28°C° 0 mm 3 mps 761 mmHg 72%
    08:00 +29°C° 0 mm 3 mps 761 mmHg 65%
    09:00 +30°C° 0 mm 3 mps 761 mmHg 59%
    10:00 +33°C° 0 mm 3 mps 761 mmHg 53%
    11:00 +33°C° 0 mm 3 mps 761 mmHg 53%
    12:00 +33°C° 0 mm 3 mps 761 mmHg 52%
    13:00 +34°C° 0 mm 3 mps 760 mmHg 52%
    14:00 +33°C° 0 mm 3 mps 760 mmHg 54%
    15:00 +33°C° 0 mm 3 mps 760 mmHg 56%
    16:00 +31°C° 0 mm 3 mps 759 mmHg 59%
    17:00 +30°C° 0 mm 3 mps 760 mmHg 63%
    18:00 +29°C° 0 mm 3 mps 760 mmHg 67%
    19:00 +28°C° 0 mm 4 mps 761 mmHg 71%
    20:00 +28°C° 0 mm 3 mps 761 mmHg 73%
    21:00 +28°C° 0 mm 3 mps 761 mmHg 76%
    22:00 +27°C° 0 mm 3 mps 761 mmHg 78%
    23:00 +27°C° 0 mm 3 mps 761 mmHg 79%

    Day after tomorrow, 21 June, Thursday

    Time Temperature Precipitation Wind Pressure Humidity
    00:00 +27°C° 0 mm 3 mps 761 mmHg 80%
    01:00 +27°C° 0 mm 3 mps 760 mmHg 81%
    02:00 +27°C° 0 mm 3 mps 760 mmHg 81%
    03:00 +26°C° 0 mm 3 mps 760 mmHg 82%
    04:00 +26°C° 0 mm 3 mps 760 mmHg 83%
    05:00 +27°C° 0 mm 3 mps 760 mmHg 80%
    06:00 +28°C° 0 mm 4 mps 761 mmHg 76%
    07:00 +28°C° 0 mm 4 mps 761 mmHg 73%
    08:00 +29°C° 0 mm 4 mps 761 mmHg 68%
    09:00 +30°C° 0 mm 4 mps 761 mmHg 63%
    10:00 +32°C° 0 mm 5 mps 761 mmHg 58%
    11:00 +33°C° 0 mm 5 mps 761 mmHg 56%
    12:00 +33°C° 0 mm 5 mps 761 mmHg 54%
    13:00 +33°C° 0 mm 6 mps 760 mmHg 52%
    14:00 +32°C° 0 mm 6 mps 760 mmHg 58%
    15:00 +32°C° 0 mm 6 mps 760 mmHg 63%
    16:00 +30°C° 0 mm 7 mps 760 mmHg 68%
    17:00 +29°C° 0 mm 7 mps 760 mmHg 71%
    18:00 +28°C° 0 mm 8 mps 760 mmHg 75%
    19:00 +27°C° 0 mm 8 mps 761 mmHg 78%
    20:00 +27°C° 0 mm 8 mps 761 mmHg 78%
    21:00 +27°C° 0 mm 8 mps 761 mmHg 78%
    22:00 +27°C° 0 mm 7 mps 762 mmHg 78%
    23:00 +26°C° 0 mm 7 mps 761 mmHg 79%

    22 June, Friday

    Time Temperature Precipitation Wind Pressure Humidity
    00:00 +26°C° 0 mm 7 mps 761 mmHg 80%
    01:00 +26°C° 0 mm 6 mps 761 mmHg 82%
    02:00 +26°C° 0 mm 6 mps 761 mmHg 82%
    03:00 +26°C° 0 mm 6 mps 760 mmHg 82%
    04:00 +26°C° 0 mm 5 mps 760 mmHg 83%
    05:00 +27°C° 0.1 mm 6 mps 761 mmHg 82%
    06:00 +27°C° 0.1 mm 6 mps 761 mmHg 81%
    07:00 +27°C° 0.1 mm 6 mps 762 mmHg 80%
    08:00 +28°C° 0.1 mm 6 mps 762 mmHg 76%
    09:00 +29°C° 0.1 mm 6 mps 762 mmHg 71%
    10:00 +30°C° 0.1 mm 7 mps 762 mmHg 67%
    11:00 +30°C° 0 mm 7 mps 762 mmHg 65%
    12:00 +32°C° 0 mm 7 mps 761 mmHg 62%
    13:00 +32°C° 0 mm 8 mps 761 mmHg 60%
    14:00 +32°C° 0 mm 8 mps 761 mmHg 62%
    15:00 +31°C° 0 mm 8 mps 760 mmHg 64%
    16:00 +31°C° 0 mm 9 mps 760 mmHg 66%
    17:00 +29°C° 0 mm 9 mps 761 mmHg 69%
    18:00 +28°C° 0 mm 9 mps 761 mmHg 72%
    19:00 +27°C° 0 mm 9 mps 762 mmHg 76%
    20:00 +27°C° 0 mm 9 mps 762 mmHg 76%
    21:00 +27°C° 0 mm 9 mps 762 mmHg 77%
    22:00 +27°C° 0 mm 9 mps 762 mmHg 77%
    23:00 +27°C° 0 mm 8 mps 762 mmHg 78%

    23 June, Saturday

    Time Temperature Precipitation Wind Pressure Humidity
    00:00 +26°C° 0 mm 8 mps 762 mmHg 79%
    01:00 +26°C° 0 mm 8 mps 761 mmHg 79%
    02:00 +26°C° 0 mm 8 mps 761 mmHg 80%
    03:00 +26°C° 0 mm 8 mps 761 mmHg 80%
    04:00 +26°C° 0 mm 8 mps 761 mmHg 80%
    05:00 +26°C° 0 mm 8 mps 762 mmHg 78%
    06:00 +27°C° 0 mm 8 mps 762 mmHg 76%
    07:00 +27°C° 0 mm 8 mps 762 mmHg 73%
    08:00 +28°C° 0.1 mm 8 mps 763 mmHg 69%
    09:00 +29°C° 0.1 mm 8 mps 763 mmHg 65%
    10:00 +31°C° 0.1 mm 9 mps 763 mmHg 61%
    11:00 +31°C° 0 mm 9 mps 762 mmHg 59%
    12:00 +32°C° 0 mm 9 mps 762 mmHg 58%
    13:00 +32°C° 0 mm 9 mps 762 mmHg 57%
    14:00 +31°C° 0 mm 9 mps 761 mmHg 59%
    15:00 +31°C° 0 mm 9 mps 761 mmHg 61%
    16:00 +29°C° 0 mm 9 mps 761 mmHg 64%
    17:00 +28°C° 0 mm 9 mps 761 mmHg 67%
    18:00 +28°C° 0 mm 9 mps 762 mmHg 71%
    19:00 +27°C° 0 mm 9 mps 762 mmHg 75%
    20:00 +27°C° 0 mm 9 mps 762 mmHg 74%
    21:00 +27°C° 0 mm 8 mps 762 mmHg 74%
    22:00 +26°C° 0 mm 8 mps 763 mmHg 74%
    23:00 +26°C° 0 mm 8 mps 762 mmHg 76%

    24 June, Sunday

    Time Temperature Precipitation Wind Pressure Humidity
    00:00 +26°C° 0 mm 8 mps 762 mmHg 77%
    01:00 +26°C° 0 mm 7 mps 761 mmHg 79%
    02:00 +26°C° 0.1 mm 7 mps 761 mmHg 79%
    03:00 +26°C° 0.1 mm 7 mps 761 mmHg 80%
    04:00 +26°C° 0.1 mm 8 mps 761 mmHg 80%
    05:00 +26°C° 0.1 mm 8 mps 762 mmHg 78%
    06:00 +27°C° 0.1 mm 8 mps 762 mmHg 76%
    07:00 +27°C° 0.1 mm 8 mps 762 mmHg 74%
    08:00 +28°C° 0 mm 8 mps 762 mmHg 69%
    09:00 +29°C° 0 mm 8 mps 762 mmHg 65%
    10:00 +31°C° 0 mm 9 mps 762 mmHg 60%
    11:00 +31°C° 0 mm 9 mps 762 mmHg 58%
    12:00 +31°C° 0 mm 9 mps 762 mmHg 57%
    13:00 +32°C° 0 mm 9 mps 761 mmHg 56%
    14:00 +31°C° 0 mm 8 mps 761 mmHg 58%
    15:00 +31°C° 0 mm 8 mps 761 mmHg 60%
    16:00 +29°C° 0 mm 8 mps 761 mmHg 63%
    17:00 +28°C° 0 mm 8 mps 761 mmHg 67%
    18:00 +28°C° 0 mm 8 mps 762 mmHg 72%
    19:00 +27°C° 0 mm 8 mps 762 mmHg 76%
    20:00 +27°C° 0 mm 8 mps 762 mmHg 77%
    21:00 +27°C° 0 mm 8 mps 762 mmHg 78%
    22:00 +26°C° 0 mm 8 mps 762 mmHg 79%
    23:00 +26°C° 0.1 mm 8 mps 762 mmHg 80%
    Show more